カタログに戻る

COSMOS 1275 DEB

運用中PO
NORAD 39056·DEBRIS·🇷🇺 Russia

打ち上げ Jun 4, 1981 から Plesetsk Cosmodrome

Loading…

次のパス (今後24時間)

TLE

最新Source: Space-Track

元期: Sep 13, 2026, 14:00 UTC

1 39056U 81053MU  26256.58401124  .00000653  00000-0  73570-3 0  9995
2 39056  82.9480 198.9891 0119909 203.7737 155.7849 13.66283192 91717

AllMySatでCOSMOS 1275 DEBをリアルタイム追跡

Download on the App Store